Whitefield, NH

8:26 PM EDT on March 25, 2017 (GMT -0400)
Mount Washington Regional

Weather History for KHIE - January, 2013

Change the Weather History Date:

Saturday, January 12, 2013

  Actual Average Record
Temperature  
Mean Temperature 36 °F -  
Max Temperature 39 °F 22 °F 52 °F (2017)
Min Temperature 32 °F 1 °F -8 °F (2001)
Degree Days  
Heating Degree Days 30    
Moisture  
Dew Point 32 °F    
Average Humidity 92    
Maximum Humidity 96    
Minimum Humidity 86    
Precipitation  
Precipitation 0.01 in - - ()
Sea Level Pressure  
Sea Level Pressure 30.12 in    
Wind  
Wind Speed 0 mph (East)    
Max Wind Speed 4 mph    
Max Gust Speed -    
Visibility 6 miles    
Events Fog    
Averages and records for this station are not official NWS values.
T = Trace of Precipitation, MM = Missing Value Source: NWS Daily Summary

Daily Weather History Graph

Daily Weather History Graph

Search for Another Location

Airport or City:

Trip Planner

Search our weather history database for the weather conditions in past years. The results will help you decide how hot, cold, wet, or windy it might be!

Date:

Astronomy

Jan. 12, 2013 Rise Set
Actual Time 7:20 AM EST 4:29 PM EST
Civil Twilight 6:47 AM EST 5:01 PM EST
Nautical Twilight 6:11 AM EST 5:38 PM EST
Astronomical Twilight 5:36 AM EST 6:12 PM EST
Moon 7:33 AM EST (1/12) 5:59 PM EST (1/12)
Length of Visible Light 10h 14m
Length of Day
9h 09m
New Moon, 1% of the Moon is Illuminated
Jan 12
New Moon
Jan 18
First Quarter
Jan 26
Full
Feb 3
Last Quarter
Feb 10
New

Hourly Weather History & Observations

Time (EST) Temp. Windchill Dew Point Humidity Pressure Visibility Wind Dir Wind Speed Gust Speed Precip Events Conditions
12:40 AM 33.8 °F - 30.2 °F 87% 30.11 in 7.0 mi Calm Calm - 0.00 in   Overcast
12:52 AM 33.1 °F - 30.9 °F 92% 30.16 in 10.0 mi Calm Calm - 0.00 in   Overcast
1:52 AM 33.1 °F - 30.9 °F 92% 30.16 in 9.0 mi Calm Calm - 0.01 in   Overcast
2:52 AM 33.1 °F - 30.9 °F 92% 30.14 in 7.0 mi Calm Calm - N/A   Overcast
3:52 AM 33.1 °F - 32.0 °F 96% 30.14 in 9.0 mi Calm Calm - N/A   Overcast
4:52 AM 33.1 °F - 30.9 °F 92% 30.13 in 6.0 mi Calm Calm - N/A   Overcast
5:52 AM 33.1 °F - 30.9 °F 92% 30.14 in 6.0 mi Calm Calm - N/A   Overcast
6:52 AM 33.1 °F - 30.9 °F 92% 30.18 in 10.0 mi Calm Calm - N/A   Overcast
7:52 AM 33.1 °F 30.0 °F 32.0 °F 96% 30.16 in 5.0 mi ESE 3.5 mph - N/A   Overcast
8:52 AM 33.1 °F - 32.0 °F 96% 30.18 in 5.0 mi Calm Calm - N/A   Overcast
9:52 AM 34.0 °F - 32.0 °F 92% 30.17 in 9.0 mi Calm Calm - N/A   Overcast
10:02 AM 33.8 °F - 32.0 °F 93% 30.12 in 8.0 mi Calm Calm - N/A   Overcast
10:52 AM 35.1 °F - 33.1 °F 92% 30.15 in 10.0 mi Calm Calm - N/A   Overcast
11:52 AM 37.0 °F - 33.1 °F 86% 30.12 in 10.0 mi Calm Calm - N/A   Overcast
12:52 PM 37.9 °F - 35.1 °F 89% 30.10 in 10.0 mi Calm Calm - N/A   Clear
1:52 PM 39.0 °F - 36.0 °F 89% 30.10 in 10.0 mi Calm Calm - N/A   Clear
2:52 PM 39.9 °F - 36.0 °F 86% 30.10 in 10.0 mi Calm Calm - N/A   Clear
3:11 PM 39.2 °F - 35.6 °F 87% 30.07 in 10.0 mi Calm Calm - N/A   Partly Cloudy
3:52 PM 39.0 °F - 36.0 °F 89% 30.11 in 10.0 mi Calm Calm - N/A   Clear
4:31 PM 35.6 °F - 33.8 °F 93% 30.06 in 10.0 mi Calm Calm - N/A   Partly Cloudy
4:52 PM 34.0 °F - 33.1 °F 96% 30.11 in 8.0 mi Calm Calm - N/A   Partly Cloudy
5:25 PM 32.0 °F - 30.2 °F 93% 30.06 in 7.0 mi Calm Calm - N/A   Mostly Cloudy
5:49 PM 32.0 °F - 30.2 °F 93% 30.06 in 1.5 mi Calm Calm - N/A   Overcast
5:52 PM 32.0 °F - 30.0 °F 92% 30.11 in 0.8 mi Calm Calm - N/A   Mist
6:24 PM 32.0 °F - 30.2 °F 93% 30.07 in 1.5 mi Calm Calm - N/A   Overcast
6:26 PM 32.0 °F - 30.2 °F 93% 30.07 in 4.0 mi Calm Calm - N/A   Overcast
6:52 PM 33.1 °F - 30.9 °F 92% 30.12 in 1.8 mi Calm Calm - N/A   Overcast
7:06 PM 33.8 °F - 30.2 °F 87% 30.07 in 0.8 mi Calm Calm - N/A   Mist
7:52 PM 33.1 °F - 32.0 °F 96% 30.12 in 0.2 mi Calm Calm - N/A Fog Fog
8:52 PM 34.0 °F - 33.1 °F 96% 30.12 in 0.2 mi Calm Calm - N/A Fog Fog
9:52 PM 34.0 °F - 33.1 °F 96% 30.12 in 0.5 mi Calm Calm - N/A Fog Fog
10:52 PM 34.0 °F - 33.1 °F 96% 30.12 in 0.5 mi Calm Calm - N/A Fog Fog
11:52 PM 34.0 °F 31.0 °F 32.0 °F 92% 30.12 in 0.2 mi East 3.5 mph - N/A Fog Fog